C/2023 Q1 ( PanSTARRS )

Japanese version
Home page
Updated on September 4, 2024

---------------------------------------------------------------------

* Profile

Discovery Date August 20, 2023
Magnitude 22.0 mag
Discoverer Pan-STARRS 1 telescope (Haleakala)

* Pictures

* Orbital Elements

Epoch 2024 Oct. 17.0 TT = JDT 2460600.5
T 2024 Dec. 1.14221 TT                                  Rudenko
q   2.5757027            (2000.0)            P               Q
z  -0.0020688      Peri.   84.41071     -0.00254736     -0.99724503
 +/-0.0000048      Node     7.13528     +0.50180378     -0.06539951
e   1.0053286      Incl.   36.64342     +0.86497773     +0.03500365
>From 221 observations 2023 July 25-2024 Sept. 1, mean residual 0".6.

* Finding Charts

* Magnitudes Graph

        m1 = 9.5 + 5 log d + 10.0 log r

---------------------------------------------------------------------

The orbital elements are published on M.P.E.C. 2024-R10.
The charts are made with StellaNavigator Ver.11 (AstroArts).
The magnitudes graphs are made with Comet for Windows.

---------------------------------------------------------------------

Copyright(C) Seiichi Yoshida (comet@aerith.net). All rights reserved.